Volver al catálogo

STARLINK-11185

ActivoComunicacionesVLEO
NORAD 62588·PAYLOAD·🇺🇸 United States

Lanzado Jan 13, 2025 desde Cape Canaveral Space Force Station

Loading…

Próximos Pases (próximas 24 horas)

TLE

ActualizadoSource: CelesTrak SupGP

Época: Sep 14, 2026, 20:53 UTC

1 62588C 25008B   26257.87062500  .00067641  00000+0  52554-3 0  2578
2 62588  43.0010  65.6039 0001706 282.6386 314.0276 15.70796652    19

Sigue STARLINK-11185 en tiempo real con AllMySat

Download on the App Store